TimeCDT,TemperatureF,Dew PointF,Humidity,Sea Level PressureIn,VisibilityMPH,Wind Direction,Wind SpeedMPH,Gust SpeedMPH,PrecipitationIn,Events,Conditions,WindDirDegrees,DateUTC
12:12 AM,51.8,50.0,94,30.34,10.0,East,4.6,-,N/A,,Clear,80,2013-09-16 05:12:00
12:33 AM,48.2,48.2,100,30.34,10.0,East,4.6,-,N/A,,Clear,90,2013-09-16 05:33:00
12:53 AM,46.4,46.4,100,30.34,10.0,East,4.6,-,N/A,,Clear,80,2013-09-16 05:53:00
1:12 AM,48.2,48.2,100,30.35,10.0,East,4.6,-,N/A,,Clear,90,2013-09-16 06:12:00
1:33 AM,48.2,46.4,93,30.35,10.0,East,4.6,-,N/A,,Clear,90,2013-09-16 06:33:00
1:53 AM,46.4,46.4,100,30.35,10.0,Calm,Calm,-,N/A,,Clear,0,2013-09-16 06:53:00
2:12 AM,46.4,46.4,100,30.36,10.0,East,3.5,-,N/A,,Clear,90,2013-09-16 07:12:00
2:33 AM,46.4,46.4,100,30.36,10.0,East,3.5,-,N/A,,Clear,90,2013-09-16 07:33:00
2:53 AM,46.4,46.4,100,30.36,10.0,Calm,Calm,-,N/A,,Clear,0,2013-09-16 07:53:00
3:12 AM,46.4,46.4,100,30.36,10.0,Calm,Calm,-,N/A,,Clear,0,2013-09-16 08:12:00
3:33 AM,46.4,46.4,100,30.36,10.0,Calm,Calm,-,N/A,,Clear,0,2013-09-16 08:33:00
3:53 AM,44.6,44.6,100,30.37,10.0,SE,3.5,-,N/A,,Clear,130,2013-09-16 08:53:00
4:13 AM,46.4,44.6,93,30.37,10.0,SE,3.5,-,N/A,,Clear,130,2013-09-16 09:13:00
4:33 AM,44.6,44.6,100,30.37,10.0,Calm,Calm,-,N/A,,Clear,0,2013-09-16 09:33:00
4:52 AM,46.4,44.6,93,30.38,10.0,Calm,Calm,-,N/A,,Clear,0,2013-09-16 09:52:00
5:13 AM,44.6,44.6,100,30.38,10.0,Calm,Calm,-,N/A,,Clear,0,2013-09-16 10:13:00
5:32 AM,44.6,44.6,100,30.38,10.0,Calm,Calm,-,N/A,,Clear,0,2013-09-16 10:32:00
5:53 AM,44.6,42.8,93,30.38,10.0,ENE,3.5,-,N/A,,Clear,70,2013-09-16 10:53:00
6:13 AM,44.6,42.8,93,30.38,10.0,ENE,3.5,-,N/A,,Clear,70,2013-09-16 11:13:00
6:32 AM,44.6,44.6,100,30.39,10.0,Calm,Calm,-,N/A,,Clear,0,2013-09-16 11:32:00
6:53 AM,44.6,44.6,100,30.39,10.0,Calm,Calm,-,N/A,,Clear,0,2013-09-16 11:53:00
7:13 AM,42.8,42.8,100,30.39,10.0,Calm,Calm,-,N/A,,Clear,0,2013-09-16 12:13:00
7:32 AM,44.6,44.6,100,30.40,10.0,ENE,4.6,-,N/A,,Clear,60,2013-09-16 12:32:00
7:53 AM,46.4,44.6,93,30.39,10.0,ENE,5.8,-,N/A,,Clear,60,2013-09-16 12:53:00
8:13 AM,46.4,44.6,93,30.39,10.0,East,3.5,-,N/A,,Clear,90,2013-09-16 13:13:00
8:32 AM,48.2,46.4,93,30.40,10.0,East,5.8,-,N/A,,Clear,90,2013-09-16 13:32:00
8:53 AM,50.0,46.4,87,30.40,10.0,ESE,10.4,-,N/A,,Clear,110,2013-09-16 13:53:00
9:13 AM,50.0,44.6,82,30.40,10.0,ESE,11.5,-,N/A,,Clear,110,2013-09-16 14:13:00
9:32 AM,51.8,44.6,76,30.41,10.0,ESE,10.4,-,N/A,,Clear,120,2013-09-16 14:32:00
9:53 AM,51.8,44.6,76,30.41,10.0,ESE,6.9,-,N/A,,Clear,120,2013-09-16 14:53:00
10:13 AM,53.6,46.4,77,30.41,10.0,SE,4.6,-,N/A,,Clear,140,2013-09-16 15:13:00
10:32 AM,53.6,44.6,72,30.40,10.0,SSE,4.6,-,N/A,,Clear,150,2013-09-16 15:32:00
10:53 AM,53.6,46.4,77,30.40,10.0,SE,6.9,-,N/A,,Clear,130,2013-09-16 15:53:00
11:13 AM,55.4,46.4,72,30.40,10.0,SSE,5.8,-,N/A,,Clear,150,2013-09-16 16:13:00
11:32 AM,55.4,46.4,72,30.40,10.0,SE,3.5,-,N/A,,Clear,140,2013-09-16 16:32:00
11:53 AM,57.2,46.4,67,30.39,10.0,SSE,3.5,-,N/A,,Clear,160,2013-09-16 16:53:00
12:13 PM,59.0,46.4,63,30.39,10.0,East,8.1,-,N/A,,Clear,100,2013-09-16 17:13:00
12:32 PM,57.2,46.4,67,30.39,10.0,East,3.5,-,N/A,,Clear,80,2013-09-16 17:32:00
12:53 PM,59.0,46.4,63,30.39,10.0,SSE,6.9,-,N/A,,Clear,150,2013-09-16 17:53:00
1:13 PM,60.8,48.2,63,30.38,10.0,South,3.5,-,N/A,,Clear,170,2013-09-16 18:13:00
1:33 PM,60.8,48.2,63,30.37,10.0,SSE,4.6,-,N/A,,Clear,150,2013-09-16 18:33:00
1:53 PM,60.8,46.4,59,30.37,10.0,SE,6.9,-,N/A,,Clear,130,2013-09-16 18:53:00
2:13 PM,62.6,46.4,55,30.36,10.0,SE,6.9,-,N/A,,Clear,130,2013-09-16 19:13:00
2:33 PM,62.6,48.2,59,30.34,10.0,East,6.9,-,N/A,,Clear,80,2013-09-16 19:33:00
2:53 PM,64.4,46.4,52,30.34,10.0,SE,10.4,-,N/A,,Clear,130,2013-09-16 19:53:00
3:13 PM,64.4,44.6,49,30.33,10.0,SE,9.2,-,N/A,,Clear,130,2013-09-16 20:13:00
3:32 PM,64.4,46.4,52,30.32,10.0,SE,8.1,-,N/A,,Clear,130,2013-09-16 20:32:00
3:53 PM,66.2,46.4,49,30.31,10.0,ESE,8.1,-,N/A,,Clear,110,2013-09-16 20:53:00
4:13 PM,66.2,46.4,49,30.30,10.0,ESE,10.4,-,N/A,,Clear,120,2013-09-16 21:13:00
4:32 PM,66.2,46.4,49,30.29,10.0,SE,6.9,10.4,N/A,,Clear,140,2013-09-16 21:32:00
4:53 PM,66.2,46.4,49,30.28,10.0,SE,13.8,-,N/A,,Clear,130,2013-09-16 21:53:00
5:13 PM,66.2,48.2,52,30.28,10.0,SE,8.1,-,N/A,,Clear,140,2013-09-16 22:13:00
5:32 PM,66.2,46.4,49,30.28,10.0,SE,8.1,-,N/A,,Clear,140,2013-09-16 22:32:00
5:53 PM,64.4,48.2,56,30.27,10.0,SSE,8.1,-,N/A,,Clear,150,2013-09-16 22:53:00
6:13 PM,64.4,48.2,56,30.27,10.0,SSE,9.2,-,N/A,,Clear,150,2013-09-16 23:13:00
6:32 PM,64.4,48.2,56,30.26,10.0,SSE,6.9,-,N/A,,Clear,150,2013-09-16 23:32:00
6:53 PM,62.6,48.2,59,30.26,10.0,SSE,5.8,-,N/A,,Clear,150,2013-09-16 23:53:00
7:13 PM,62.6,48.2,59,30.25,10.0,SE,5.8,-,N/A,,Clear,140,2013-09-17 00:13:00
7:32 PM,60.8,48.2,63,30.25,10.0,SE,4.6,-,N/A,,Clear,140,2013-09-17 00:32:00
7:53 PM,57.2,50.0,77,30.25,10.0,SE,5.8,-,N/A,,Clear,140,2013-09-17 00:53:00
8:13 PM,55.4,50.0,82,30.25,10.0,SE,4.6,-,N/A,,Clear,130,2013-09-17 01:13:00
8:32 PM,55.4,51.8,88,30.24,10.0,ESE,5.8,-,N/A,,Clear,120,2013-09-17 01:32:00
8:53 PM,55.4,51.8,88,30.25,10.0,SE,4.6,-,N/A,,Clear,130,2013-09-17 01:53:00
9:13 PM,53.6,51.8,94,30.24,10.0,SE,4.6,-,N/A,,Clear,140,2013-09-17 02:13:00
9:32 PM,53.6,50.0,88,30.24,10.0,SE,4.6,-,N/A,,Clear,130,2013-09-17 02:32:00
9:53 PM,53.6,50.0,88,30.24,10.0,SE,3.5,-,N/A,,Clear,130,2013-09-17 02:53:00
10:13 PM,53.6,50.0,88,30.24,10.0,SE,3.5,-,N/A,,Clear,140,2013-09-17 03:13:00
10:32 PM,55.4,51.8,88,30.24,10.0,SE,6.9,-,N/A,,Clear,140,2013-09-17 03:32:00
10:53 PM,55.4,50.0,82,30.24,10.0,SE,6.9,-,N/A,,Clear,140,2013-09-17 03:53:00
11:13 PM,53.6,50.0,88,30.24,10.0,SE,5.8,-,N/A,,Clear,140,2013-09-17 04:13:00
11:32 PM,53.6,48.2,82,30.23,10.0,SE,6.9,-,N/A,,Clear,140,2013-09-17 04:32:00
11:53 PM,53.6,48.2,82,30.23,10.0,SE,6.9,-,N/A,,Clear,140,2013-09-17 04:53:00